Regional Weather Roundup
Issued by NWS Raleigh/Durham, NC

Home | Current Version | Previous Version | Text Only | Print | Product List | Glossary On
Versions: 1 2 3 4 5 6 7 8 9 10 11 12 13 14 15 16 17 18 19 20 21 22 23 24 25 26 27 28 29 30 31 32 33 34 35 36 37 38 39 40 41 42 43 44 45 46 47 48 49 50
000
ASUS42 KRAH 300110
RWRRAH
NORTH CAROLINA WEATHER ROUNDUP
NATIONAL WEATHER SERVICE RALEIGH NC
900 PM EDT TUE JUL 29 2014

NOTE: "FAIR" INDICATES FEW OR NO CLOUDS BELOW 12,000 FEET WITH NO
SIGNIFICANT WEATHER AND/OR OBSTRUCTIONS TO VISIBILITY.

NCZ001-053-055-056-065-067-300200-
WESTERN NORTH CAROLINA

CITY           SKY/WX    TMP DP  RH WIND       PRES   REMARKS
ASHEVILLE      CLEAR     67  51  56 N13G20    30.07R
JEFFERSON      PTCLDY    62  49  64 NW9       30.09R
MORGANTON      MOCLDY    66  59  78 CALM      30.05R
HICKORY        CLEAR     72  54  53 N3        30.00R
RUTHERFORDTON  CLOUDY    73  58  60 NE3       30.01R
MOUNT AIRY     PTCLDY    73  55  54 CALM      30.00R
BOONE          CLEAR     62  49  62 W3        30.10R
$$

NCZ021-022-025-041-071-084-088-300200-
CENTRAL NORTH CAROLINA

CITY           SKY/WX    TMP DP  RH WIND       PRES   REMARKS
CHARLOTTE      PTCLDY    75  53  46 CALM      29.98R
GREENSBORO     PTCLDY    74  56  53 CALM      29.97R
WINSTON-SALEM  CLOUDY    71  60  68 CALM      29.99R
RALEIGH-DURHAM PTCLDY    71  62  73 CALM      29.97R
FORT BRAGG     CLEAR     74  62  64 E3        29.95R
FAYETTEVILLE   CLEAR     75  61  61 E6        29.94R
BURLINGTON     PTCLDY    70  60  70 CALM      29.97R
LAURINBURG     CLEAR     72  63  73 CALM      29.95R
$$

NCZ011-015-027-028-043-044-047-080-103-300200-
NORTHEASTERN NORTH CAROLINA

CITY           SKY/WX    TMP DP  RH WIND       PRES   REMARKS
ROCKY MT-WILSO CLEAR     68  61  78 CALM      29.96R
GREENVILLE     CLEAR     70  63  78 CALM      29.98R
WASHINGTON     CLEAR     71  62  73 CALM      29.95S
ELIZABETH CITY CLEAR     71  61  70 E8        29.97R
MANTEO         NOT AVBL
CAPE HATTERAS  PTCLDY    75  65  70 NE8G16    29.96R
$$

NCZ078-087-090-091-093-098-101-300200-
SOUTHEASTERN NORTH CAROLINA

CITY           SKY/WX    TMP DP  RH WIND       PRES   REMARKS
LUMBERTON      PTCLDY    78  63  59 NE3       29.94R
GOLDSBORO      CLEAR     72  66  79 E3        29.94R
KINSTON        PTCLDY    72  63  73 CALM      29.96R
KENANSVILLE    PTCLDY    70  63  78 CALM      29.96R
NEW BERN       CLEAR     76  64  66 NE7       29.96R
CHERRY POINT   PTCLDY    78  68  71 N9        29.96R
BEAUFORT       CLOUDY    78  69  73 NE6G16    29.95R
JACKSONVILLE   MOCLDY    77  64  64 N7        29.95R
WILMINGTON     MOCLDY    74  71  91 E7        29.95R
$$




USA.gov is the U.S. government's official web portal to all federal, state and local government web resources and services.